Regional Weather Roundup
Issued by NWS

Home | Current Version | Previous Version | Text Only | Print | Product List | Glossary Off
Versions: 1 2 3 4 5 6 7 8 9 10 11 12 13 14 15 16 17 18 19 20 21 22 23 24 25 26 27 28 29 30 31 32 33 34 35 36 37 38 39 40 41 42 43 44 45 46 47 48 49 50

000
ASUS45 KCYS 170410
RWRWY

WYOMING REGIONAL WEATHER ROUNDUP
NATIONAL WEATHER SERVICE CHEYENNE WY
1000 PM MDT TUE SEP 16 2014

NOTE:  "FAIR" INDICATES FEW OR NO CLOUDS BELOW 12,000 FEET
WITH NO SIGNIFICANT WEATHER AND/OR OBSTRUCTIONS TO VISIBILITY.

WYZ001-170500-
YELLOWSTONE NATIONAL PARK

CITY           SKY/WX    TMP DP  RH WIND       PRES   REMARKS
LK YELLOWSTONE   N/A     45  39  79 CALM      30.27S
W YELLOWSTONE  NOT AVBL

$$
WYZ002>013-054>058-071-098>099-170500-
NORTHERN WYOMING

CITY           SKY/WX    TMP DP  RH WIND       PRES   REMARKS
JACKSON        PTCLDY    57  43  58 CALM      30.17S
CODY           PTCLDY    57  45  62 S5        30.07S
GREYBULL       PTCLDY    62  45  53 S6        29.98S
WORLAND        MOCLDY    67  46  47 S7        30.01R
SHERIDAN       MOCLDY    57  48  72 S6        29.99F
BUFFALO        MOCLDY    63  38  39 W10       30.07F
GILLETTE       PTCLDY    53  41  63 S7        30.03R
HULETT         FAIR      55  41  58 MISG      30.03
NEWCASTLE      FAIR      59  34  38 S3        30.03

$$
WYZ014>020-022>026-101>103-170500-
CENTRAL WYOMING

CITY           SKY/WX    TMP DP  RH WIND       PRES   REMARKS
BIG PINEY      PTCLDY    59  41  51 SW7       30.23F
PINEDALE       CLOUDY    68  32  26 NW3       30.23F
DUBOIS         MOCLDY    50  45  81 NW7       30.25R
LANDER         PTCLDY    65  40  39 W10       30.13S
RIVERTON       PTCLDY    70  38  31 NE6       30.09S
CASPER         MOCLDY    59  35  40 N8        30.09R
DOUGLAS        PTCLDY    70  35  27 NE10      30.06S

$$
WYZ021-027>030-104>119-170500-
SOUTHERN WYOMING

CITY           SKY/WX    TMP DP  RH WIND       PRES   REMARKS
EVANSTON       CLEAR     63  37  38 S9        30.23S
KEMMERER       CLEAR    N/A N/A N/A S5        30.25R
FORT BRIDGER   FAIR      63  41  45 S9        30.25F
ROCK SPRINGS   MOCLDY    65  36  34 W8        30.21S
DIXON          MOCLDY    62  41  45 SE9       30.23F
RAWLINS        MOCLDY    64  34  32 VRB5      30.20S
SARATOGA       MOCLDY    63  36  36 SW8       30.24F
LARAMIE        MOCLDY    59  35  40 S12       30.24R
CHEYENNE       PTCLDY    58  38  47 W7        30.16F
TORRINGTON     CLEAR     58  46  64 E7        30.00R
PINE BLUFFS    FAIR      55  36  47 CALM      30.11S

$$


USA.gov is the U.S. government's official web portal to all federal, state and local government web resources and services.